Location: Huntington Bay
(40.8998°N, 73.4148°W)
Time: 21:32:41
(UTC+00:00)

Daily predictions for brighter satellites

Satellite Brightness Start Highest point End
(mag) Time Altitude Azimuth Time Altitude Azimuth Time Altitude Azimuth
STARLINK-1046 4.1 23:05:52 10° WSW 23:09:58 61° NW 23:14:04 10° NE
Envisat 4.2 23:06:34 10° S 23:11:27 49° W 23:16:23 10° NNW
Cosmos 2227 Rocket 4.1 23:10:58 10° NNE 23:12:02 10° NE 23:13:06 10° NE
SKYMED 2 3.8 23:09:27 10° N 23:13:48 76° WNW 23:18:07 10° SSW
Meteor 1-20 Rocket 4.3 23:09:17 10° S 23:14:37 56° E 23:20:04 10° NNE
STARLINK-1039 4.2 23:10:57 10° WSW 23:15:02 56° NW 23:19:07 10° NE
STARLINK-1045 4.3 23:15:56 10° WSW 23:19:57 51° NNW 23:24:01 10° NE
Cosmos 1763 Rocket 3.6 23:20:11 10° S 23:25:14 53° ESE 23:30:23 10° NNE
Cosmos 841 Rocket 4.3 23:21:43 10° SSE 23:26:05 29° E 23:30:29 10° NE
Lacrosse 5 rocket 3.6 23:24:26 10° NNW 23:27:00 15° NNE 23:29:34 10° NE
GPS 2-04 Rocket1 3.8 23:24:01 10° WSW 23:27:56 39° S 23:31:49 10° ESE
NOSS 2-2 (E) 4.3 23:25:52 10° SSE 23:28:43 22° ESE 23:31:18 12° ENE
Cosmos 489 Rocket 4.5 23:22:57 10° S 23:29:16 75° ESE 23:35:35 10° NNE
Okean 1 3.7 23:26:15 10° N 23:30:01 39° ENE 23:33:44 10° SSE
Cosmos 1898 Rocket 3.6 23:25:33 10° N 23:30:38 54° ENE 23:35:42 10° SE
CRYOSAT 2 4.3 23:30:18 10° S 23:35:12 84° E 23:40:08 10° N
Cosmos 220 Rocket 3.9 23:31:14 10° S 23:35:30 65° ESE 23:39:45 10° NNE
Cosmos 1602 3.8 23:32:06 10° S 23:35:51 53° E 23:39:38 10° NNE
Cosmos 2208 Rocket 4.4 23:35:24 10° S 23:40:30 44° ESE 23:45:35 10° NNE
Meteor 1-18 Rocket 4.3 23:36:36 10° N 23:42:28 65° ENE 23:48:11 10° SSE
Cosmos 2219 4.3 23:38:09 10° N 23:42:52 25° NE 23:45:50 17° E
NOSS 3 (A) 4.3 23:41:56 10° SSW 23:44:33 57° ESE 23:46:26 17° NE
Nadezhda 4 Rocket 4.3 23:38:46 10° N 23:44:50 46° ENE 23:50:53 10° SSE
OE (NEXTSAT) 4.3 23:42:16 10° WNW 23:45:46 81° NNE 23:47:54 22° ESE
Meteor 2-11 Rocket 4.4 23:39:44 10° S 23:45:47 77° E 23:51:53 10° N
NOSS 2 (A) 3.9 23:44:34 10° NNW 23:46:57 59° NE 23:47:55 29° SE
Cosmos 540 Rocket 3.8 23:43:13 10° S 23:47:57 40° ESE 23:52:45 10° NE
Cosmos 1464 Rocket 4.0 23:43:39 10° S 23:50:01 84° E 23:56:26 10° N
APEX 4.1 23:46:02 10° S 23:50:43 55° ESE 23:56:37 10° NNE
CZ-2D R/B 3.8 23:47:34 10° S 23:51:25 63° W 23:55:18 10° NNW
Okean 1-7 3.0 23:48:29 10° N 23:52:50 86° ENE 23:57:12 10° S
Cosmos 1570 Rocket 3.9 23:47:59 10° S 23:53:10 70° ESE 23:58:25 10° NNE
Meteor 2-4 Rocket 4.2 23:48:20 10° N 23:53:57 41° ENE 23:59:30 10° SE
ARGOS 3.8 23:50:06 12° SE 23:54:25 33° ENE 23:59:12 10° N
Cosmos 1939 Rocket 3.6 23:50:43 10° S 23:54:47 57° W 23:58:53 10° NNW
Ariane Rocket 3.1 23:50:03 10° SSE 23:54:59 53° ENE 23:59:57 10° N
